Weather in Jeremie

Haiti     18°38′41″N   74°06′45″W
temp.,
°C
wind,
m/s
gust,
m/s
humid.,
%
clouds,
%
prec.,
mm/h
press.,
hPa
HPBL,
m
12 april, mon
mon1223:00+26ene3374100 0.0 1012557
02:00+25ese237612 0.0 1012513
05:00+25se2276100 0.0 1012389
08:00+25sse1173100 0.0 1014362
11:00+26ese2369100 0.0 1014415
14:00+27ne2267100 0.0 1012361
17:00+26wnw2268100 0.0 1011474
20:00+26wnw2272100 0.0 1012330
13 april, tue
tue1323:00+26nw227399 0.0 1013430
02:00+25sw11750 0.0 1012285
05:00+25wsw22785 0.0 1012289
08:00+25sw1178100 0.0 1014274
11:00+26ese1177100 0.0 1015340
14:00+26e2275100 0.0 1013422
17:00+27ene23722 0.0 1012506
20:00+27nne45750 0.0 1013685
14 april, wed
wed1423:00+27nne567619 0.0 1015784
02:00+26nne67796 0.2 1013675
05:00+26ne567894 0.1 1013735
08:00+26ne5576100 0.3 1015851
11:00+26ne5574100 0.2 1016783
14:00+26ne4473100 0.3 1014701
17:00+26nne4474100 0.0 1012623
20:00+26n447396 0.0 1013591
15 april, thu
thu1523:00+26nw11706 0.0 1013464
02:00+26w23740 0.0 1013328
05:00+25wsw23762 0.0 1013304
08:00+26nnw017514 0.0 1014389
11:00+26ene21731 0.0 1014436
14:00+26n33757 0.0 1013482
17:00+26nnw22756 0.0 1011436
20:00+26wnw227710 0.1 1013349
16 april, fri
fri1623:00+26n11764 0.0 1014345
02:00+26n11780 0.0 1013381
05:00+25wsw11790 0.0 1012286
08:00+25wsw10780 0.0 1014298
11:00+26ne11760 0.0 1015365
14:00+27n32744 0.0 1013397
17:00+27nw33734 0.0 1011386
20:00+27nw22751 0.0 1012230